TimeHST,TemperatureF,Dew PointF,Humidity,Sea Level PressureIn,VisibilityMPH,Wind Direction,Wind SpeedMPH,Gust SpeedMPH,PrecipitationIn,Events,Conditions,WindDirDegrees,DateUTC
12:56 AM,66.9,63.9,90,30.00,10.0,NE,8.1,-,N/A,,Clear,40,2012-10-05 10:56:00
1:56 AM,64.9,61.9,90,29.99,10.0,Calm,Calm,-,N/A,,Clear,0,2012-10-05 11:56:00
2:56 AM,64.9,61.9,90,29.99,10.0,Calm,Calm,-,N/A,,Clear,0,2012-10-05 12:56:00
4:56 AM,63.9,61.9,93,29.97,10.0,ENE,4.6,-,N/A,,Clear,60,2012-10-05 14:56:00
5:56 AM,63.9,63.0,97,29.98,10.0,Calm,Calm,-,N/A,,Clear,0,2012-10-05 15:56:00
6:56 AM,64.9,63.9,96,30.00,10.0,Calm,Calm,-,N/A,,Clear,0,2012-10-05 16:56:00
7:56 AM,72.9,63.9,73,29.99,10.0,Calm,Calm,-,N/A,,Clear,0,2012-10-05 17:56:00
8:56 AM,79.0,63.9,60,29.99,10.0,Calm,Calm,-,N/A,,Clear,0,2012-10-05 18:56:00
9:56 AM,79.9,63.9,58,29.99,10.0,Variable,3.5,-,N/A,,Clear,0,2012-10-05 19:56:00
10:42 AM,78.8,64.4,61,30.04,10.0,WNW,8.1,-,N/A,,Mostly Cloudy,290,2012-10-05 20:42:00
10:56 AM,78.8,64.4,61,30.04,10.0,West,6.9,-,N/A,,Mostly Cloudy,260,2012-10-05 20:56:00
11:46 AM,78.8,64.4,61,30.02,10.0,WNW,4.6,-,N/A,,Mostly Cloudy,290,2012-10-05 21:46:00
11:56 AM,79.0,63.9,60,29.96,10.0,Variable,6.9,-,N/A,,Mostly Cloudy,0,2012-10-05 21:56:00
12:05 PM,78.8,64.4,61,30.02,10.0,Calm,Calm,-,N/A,,Mostly Cloudy,0,2012-10-05 22:05:00
12:56 PM,77.9,63.0,60,29.94,10.0,Variable,5.8,-,N/A,,Mostly Cloudy,0,2012-10-05 22:56:00
1:56 PM,77.0,64.9,66,29.94,10.0,West,5.8,-,N/A,,Overcast,270,2012-10-05 23:56:00
2:56 PM,77.9,64.9,64,29.92,10.0,West,8.1,-,N/A,,Overcast,260,2012-10-06 00:56:00
3:12 PM,78.8,64.4,61,29.98,10.0,West,9.2,-,N/A,,Overcast,270,2012-10-06 01:12:00
3:25 PM,78.8,64.4,61,29.97,10.0,WSW,3.5,-,N/A,,Mostly Cloudy,250,2012-10-06 01:25:00
3:56 PM,77.9,64.9,64,29.92,10.0,West,9.2,-,N/A,,Mostly Cloudy,280,2012-10-06 01:56:00
4:56 PM,78.8,64.4,61,29.97,10.0,Variable,6.9,-,N/A,,Mostly Cloudy,0,2012-10-06 02:56:00
5:09 PM,77.0,64.4,65,29.97,10.0,West,4.6,-,N/A,,Scattered Clouds,270,2012-10-06 03:09:00
5:56 PM,73.9,63.9,71,29.93,10.0,Calm,Calm,-,N/A,,Partly Cloudy,0,2012-10-06 03:56:00
6:56 PM,70.9,63.9,78,29.94,10.0,Calm,Calm,-,N/A,,Clear,0,2012-10-06 04:56:00
7:56 PM,68.9,63.9,84,29.95,10.0,Calm,Calm,-,N/A,,Partly Cloudy,0,2012-10-06 05:56:00
8:56 PM,68.0,64.9,90,29.96,10.0,Calm,Calm,-,N/A,,Partly Cloudy,0,2012-10-06 06:56:00
9:56 PM,68.0,64.9,90,29.97,10.0,Calm,Calm,-,N/A,,Clear,0,2012-10-06 07:56:00
10:56 PM,64.9,63.9,96,29.96,10.0,Calm,Calm,-,N/A,,Clear,0,2012-10-06 08:56:00
11:56 PM,65.8,63.9,93,29.95,10.0,Calm,Calm,-,N/A,,Clear,0,2012-10-06 09:56:00